Simultaneous Nadir Overpasses (SNOs) Predictions

Prediction of SNOs between LANDSAT-8 and METOP-A Satellite Orbit:

Table of predicted SNOs for the next 14.0 days since TLE Epoch: 6/18/2021
Index Date (LANDSAT-8) Time (LANDSAT-8) Lat,Lon (LANDSAT-8) SZA (LANDSAT-8 ) Date (METOP-A) Time (METOP-A) Lat,Lon (METOP-A) SZA (METOP-A ) Distance(km) Time Diff (sec)
1 06/19/2021 18:20:01 -81.36, 129.04 119.57 06/19/2021 18:18:57 -81.50, 124.45 119.97 77.72 64
2 06/19/2021 19:09:27 81.36, -63.17 60.46 06/19/2021 19:09:25 81.37, -63.16 60.47 1.09 2
3 06/19/2021 19:58:54 -81.36, 104.35 119.56 06/19/2021 20:00:05 -81.36, 104.43 119.52 1.59 71
4 06/22/2021 13:54:15 -81.37,-164.14 119.53 06/22/2021 13:53:05 -81.38,-164.23 119.57 1.52 70
5 06/22/2021 14:43:42 81.36, 3.24 60.44 06/22/2021 14:43:45 81.36, 3.43 60.46 3.03 3
6 06/25/2021 09:28:31 -81.37, -97.73 119.49 06/25/2021 09:27:26 -81.37, -97.65 119.52 1.52 65
7 06/25/2021 10:17:58 81.36, 69.63 60.47 06/25/2021 10:18:07 81.37, 69.61 60.48 1.29 9
8 06/28/2021 05:02:47 -81.37, -31.35 119.41 06/28/2021 05:01:48 -81.37, -31.47 119.45 1.89 59
9 06/28/2021 05:52:14 81.35, 135.98 60.55 06/28/2021 05:52:28 81.36, 136.16 60.58 3.28 14
10 07/01/2021 00:37:02 -81.36, 34.99 119.28 07/01/2021 00:36:08 -81.37, 35.09 119.29 1.60 54



Historial Predications of SNOs between LANDSAT-8 and METOP-A
